Location: Salluit
(62.2046°N, 75.6437°W)
Time: 13:58:06
(UTC-04:00)

SL-21 R/B - Visible Passes

Search period start: 20 October 2014 00:00
Search period end: 30 October 2014 00:00
Orbit: 258 x 274 km, 78.9° (Epoch: 20 October)

Date Brightness Start Highest point End Pass type
(mag) Time Alt. Az. Time Alt. Az. Time Alt. Az.
21 Oct 6.2 19:24:42 10° NNE 19:24:47 10° NNE 19:24:47 10° NNE visible
22 Oct 6.1 19:21:42 10° N 19:21:59 11° NNE 19:21:59 11° NNE visible
23 Oct 5.9 19:18:14 10° N 19:18:42 13° NNE 19:18:42 13° NNE visible
24 Oct 5.7 19:14:18 10° N 19:14:57 14° NNE 19:14:57 14° NNE visible
25 Oct 5.5 19:09:52 10° N 19:10:43 16° NNE 19:10:43 16° NNE visible
26 Oct 5.2 19:04:58 10° N 19:06:02 19° NNE 19:06:02 19° NNE visible
26 Oct 7.1 20:35:42 10° NW 20:35:43 10° NW 20:35:43 10° NW visible
27 Oct 4.9 18:59:34 10° N 19:00:53 22° NNE 19:00:53 22° NNE visible
27 Oct 7.1 20:30:24 10° NW 20:30:33 11° NW 20:30:33 11° NW visible
28 Oct 4.5 18:53:41 10° N 18:55:18 26° NE 18:55:18 26° NE visible
28 Oct 7.0 20:24:36 10° NW 20:24:56 12° WNW 20:24:56 12° WNW visible
29 Oct 4.0 18:47:18 10° N 18:49:17 31° NE 18:49:17 31° NE visible
29 Oct 6.9 20:18:19 10° WNW 20:18:53 13° WNW 20:18:53 13° WNW visible
